www.pogodaiklimat.ru

Погода и климат >> Архив погоды >> Мексика >> Arriaga


ПОГОДА в Arriaga

  • Прогноз погоды в Arriaga
  • Монитор погоды в Arriaga
  • Климат города

АРХИВ ПОГОДЫ в Arriaga

Время (UTC), дата Ветер
(напр.,м/с)
 
Видим.   Явления Облачность Т
(С)
Тd
(С)
f
(%)
Тe
(С)
Тes
(С)
Комфортность P
(гПа)
Po
(гПа)
Тmin
(С)
Tmax
(С)
R
(мм)
R24
(мм)
S
(см)
18 15.11 С 5 3000 м 3/3 840 м
[Sc diur, vesp]
+32.0 +21.7 55 +41 +46 опасность
перегрева
1010.9 1005.4 +25.5 +34.2
21 15.11 С 2 3000 м 3/3 840 м
[Sc diur, vesp]
+34.0 +23.9 56 +46 +51 опасность
перегрева
1008.3 1002.9
00 16.11 С 4 2000 м 3/3 600 м
[Sc diur, vesp]
+30.0 +21.6 61 +38 +38 очень
душно
1009.4 1003.9 +25.5 +35.2
03 16.11 С 4 1000 м 1/1 840 м
[Sc diur, vesp]
+29.0 +19.8 58 +35 +35 очень
душно
1012.1 1006.7
06 16.11 С 4 1000 м 3/3 600 м
[Sc diur, vesp]
+27.4 +22.7 76 +36 +36 очень
душно
1012.7 1007.3 +25.5 +35.2
09 16.11 СЗ 5 100 м ясно +27.6 +22.0 72 +36 +36 очень
душно
1011.6 1006.1
12 16.11 СЗ 5 2000 м ясно +27.0 +21.0 70 +34 +34 очень
душно
1012.2 1006.7 +26.8
15 16.11 СЗ 4 5000 м ясно +28.0 +21.8 69 +36 +40 очень
душно
1013.8 1008.3
18 16.11 СЗ 3 5000 м ясно +31.2 +23.9 65 +43 +55 опасность
перегрева
1013.1 1007.6 +27.0 +32.2
21 16.11 С 1 5000 м ясно +33.0 +23.5 58 +44 +53 опасность
перегрева
1010.1 1004.6
00 17.11 С 5 5000 м ясно +29.0 +22.6 68 +38 +38 очень
душно
1010.7 1005.2 +27.0 +33.8
03 17.11 С 4 1000 м ясно +27.6 +21.1 68 +35 +35 очень
душно
1013.2 1007.7
06 17.11 С 5 1000 м ясно +27.4 +21.2 69 +35 +35 очень
душно
1013.6 1008.0 +26.0 +29.4
09 17.11 С 5 100 м ясно +26.4 +20.1 68 +32 +32 очень
душно
1012.6 1007.0
12 17.11 С 4 2000 м ясно +26.2 +19.2 65 +31 +31 очень
душно
1012.6 1007.0 +26.5 +29.4
15 17.11 С 3 5000 м ясно +27.6 +19.8 62 +33 +38 очень
душно
1014.6 1009.1
18 17.11 С 1 5000 м ясно +32.4 +24.1 62 +45 +61 опасность
перегрева
1012.6 1007.1 +26.5 +33.4
21 17.11 С 1 5000 м 4/4 840 м
[Sc diur, vesp]
+34.4 +26.0 62 +50 +56 опасность
перегрева
1009.7 1004.3
00 18.11 С 3 5000 м 3/3 600 м
[Sc diur, vesp]
+30.4 +20.5 55 +37 +37 очень
душно
1010.1 1004.7 +26.5 +35.4
03 18.11 С 5 3000 м ясно +28.0 +21.2 67 +35 +35 очень
душно
1011.1 1006.3
06 18.11 С 5 3000 м ясно +27.6 +21.1 68 +35 +35 очень
душно
1012.1 1006.7 +26.5 +35.4
09 18.11 С 5 1000 м ясно +27.0 +21.7 73 +35 +35 очень
душно
1010.5 1005.0
12 18.11 С 5 3000 м ясно +26.4 +20.7 71 +33 +33 очень
душно
1010.9 1005.4 +26.0 +35.4
15 18.11 С 3 5000 м ясно +28.4 +21.4 66 +36 +41 очень
душно
1012.3 1006.8
18 18.11 штиль 0 5000 м 3/3 840 м
[Cu hum]
+33.6 +26.2 65 +50 +63 опасность
перегрева
1010.6 1005.1 +26.0 +35.4
21 18.11 С 1 5000 м 4/4 840 м
[Sc diur, vesp]
+33.2 +27.8 73 +53 +58 опасность
перегрева
1008.6 1003.2
00 19.11 штиль 0 5000 м 6/3 600 м
[Sc diur, vesp As trans]
+29.2 +25.2 79 +42 +42 опасность
перегрева
1009.3 1003.9 +26.0 +37.2
03 19.11 штиль 0 3000 м 4/0
[As trans]
+26.8 +24.4 87 +38 +38 очень
душно
1011.5 1006.1
06 19.11 штиль 0 3000 м ясно +24.6 +22.1 86 +32 +32 очень
душно
1011.7 1006.2 +26.0 +37.2
09 19.11 С 2 1000 м ясно +26.2 +22.9 82 +35 +35 очень
душно
1010.7 1005.2
12 19.11 С 4 1000 м 4/4 840 м
[Sc diur, vesp]
+26.2 +21.7 76 +34 +34 очень
душно
1011.7 1006.1 +21.2
15 19.11 С 2 3000 м 4/4 840 м
[Sc diur, vesp]
+27.2 +20.3 66 +34 +37 очень
душно
1014.7 1008.6
18 19.11 С 4 3000 м 4/4 840 м
[Sc diur, vesp]
+30.6 +22.3 61 +40 +45 очень
душно
1012.9 1007.3 +21.2 +33.6
21 19.11 С 3 3000 м 3/3 840 м
[Cu hum]
+31.4 +21.9 57 +40 +44 очень
душно
1010.1 1004.6
00 20.11 С 5 2000 м 4/4 600 м
[Cu hum]
+27.4 +22.1 73 +36 +36 очень
душно
1011.4 1005.9 +21.2 +33.6
03 20.11 С 8 1000 м 5/0
[Cs]
+27.0 +20.7 68 +34 +34 очень
душно
1013.1 1007.6
06 20.11 С 6 1000 м 5/0
[Cs]
+25.6 +18.8 66 +31 +31 очень
душно
1013.4 1007.8 +21.2 +33.6
12 20.11 С 5 1000 м 4/0 2000 м
[Ac trans]
+25.4 +18.3 65 +30 +30 душно 1012.6 1007.1 +24.8 +33.6
15 20.11 С 3 3000 м 4/4 840 м
[Sc diur, vesp]
+26.0 +20.2 70 +32 +35 очень
душно
1012.6 1007.1
18 20.11 С 4 3000 м 4/0 2000 м
[Ac trans]
+29.0 +22.6 68 +38 +45 очень
душно
1012.8 1007.2 +24.8 +30.0
21 20.11 С 3 3000 м 4/0 2000 м
[Ac trans]
+30.6 +22.5 62 +40 +45 очень
душно
1010.0 1004.5
00 21.11 С 2 2000 м 4/0 2000 м
[Ac trans]
+27.2 +23.9 82 +37 +37 очень
душно
1010.7 1005.2 +24.8 +32.0
03 21.11 С 5 1000 м 4/0 2000 м
[Ac trans]
+25.4 +22.3 83 +33 +33 очень
душно
1012.0 1006.5
06 21.11 С 7 1000 м 4/0 2000 м
[Ac trans]
+25.2 +22.1 83 +33 +33 очень
душно
1011.3 1005.3 +24.8
09 21.11 С 5 1000 м 3/3 840 м
[Sc diur, vesp]
+25.0 +20.6 77 +31 +31 очень
душно
1010.5 1005.0
12 21.11 С 4 1000 м 4/0 2000 м
[Ac trans]
+24.8 +22.3 86 +32 +32 очень
душно
1010.9 1005.4 +24.0 +32.0
15 21.11 С 2 3000 м {дождь} 4/0 2000 м
[Ac trans]
+27.4 +22.7 76 +36 +40 очень
душно
1012.4 1007.1
18 21.11 С 1 3000 м 4/0 2000 м
[Ac trans]
+32.6 +24.8 64 +46 +59 опасность
перегрева
1012.6 1007.1 +24.0 +34.2
21 21.11 Ю 3 3000 м 4/4 840 м
[Cu hum]
+32.6 +26.6 71 +50 +53 опасность
перегрева
1009.4 1003.6
00 22.11 Ю 1 2000 м 3/3 600 м
[Cu hum]
+29.0 +25.0 79 +42 +42 опасность
перегрева
1009.1 1003.7 +24.0 +36.0
03 22.11 штиль 0 1000 м 3/3 840 м
[Cu hum]
+25.0 +22.8 88 +33 +33 очень
душно
1014.2 1006.7
06 22.11 штиль 0 1000 м 3/3 600 м
[Cu hum]
+22.8 +21.9 95 +31 +31 очень
душно
1011.9 1006.4 +24.0 +36.0
12 22.11 штиль 0 1000 м 1/1 800 м
[Cu hum]
+21.0 +20.1 95 +26 +26 душно 1012.0 1006.3 +20.5 +36.0
15 22.11 штиль 0 5000 м 3/3 800 м
[Cu hum]
+25.8 +24.2 91 +36 +41 очень
душно
1014.0 1008.4

 

Местоположение метеостанции Arriaga (Мексика): широта 16.23 долгота -93.90 высота над уровнем моря 48 м.

В архиве по умолчанию представлена погода в Arriaga за последнюю неделю. Архивные данные за месяц целиком и за предыдущие месяцы, начиная с января 2011 года, Вы можете получить, выбрав интересующий диапазон дат из раскрывающегося списка и нажав кнопку "Ввод!".

Внимание! Время в таблицах - всемирное. Для получения местного времени необходимо прибавить поправку, которая в Arriaga равна -6 ч.

Смотрите также архив погоды в соседних городах и на ближайших метеорологических станциях:

Погода в Tuxtla Gutierrez (Мексика) (100 км)
Погода в Salina Cruz (Мексика) (137 км)
Погода в Sn. Cristobal Las Casas (Мексика) (147 км)
Погода в Comitan (Мексика) (189 км)
Погода в Coatzacoalcos (Мексика) (218 км)
Погода в Villahermosa (Мексика) (220 км)
Погода в Tapachula City (Мексика) (229 км)
Погода в Huehuetenango (Гватемала) (280 км)
Погода в Puerto Angel (Мексика) (283 км)
Погода в Oaxaca (Мексика) (313 км)

Пояснения к столбцам:

Ветер - указаны скорость ветра в м/с - средняя за 10 мин, порывы в срок и между сроками (в фигурных скобках) и направление, откуда дует ветер: С - северный, СВ - северо-восточный, В - восточный, ЮВ - юго-восточный, Ю - южный, ЮЗ - юго-западный, З - западный, СЗ - северо-западный.
Видимость - горизонтальная дальность видимости в метрах или километрах. При видимости от 1 до 10 км при отсутствии осадков обычно наблюдается дымка, при ухудшении видимости до 1 км и менее - туман. В сухую погоду видимость может ухудшаться дымом, пылью или мглою.
Явления - указаны атмосферные явления, наблюдавшиеся в срок или в последний час перед сроком; фигурными скобками обозначены явления, наблюдавшиеся между сроками (за 1-3 часа до срока); квадратными скобками обозначены град или гололедные отложения с указанием их диаметра в мм.
Облачность - указаны через наклонную черту общая и нижняя облачность в баллах и высота нижней границы облаков в метрах; квадратными скобками обозначены формы облаков: Ci - перистые, Cs - перисто-слоистые, Cc - перисто-кучевые, Ac - высококучевые, As - высокослоистые, Sc - слоисто-кучевые, Ns - слоисто-дождевые, Cu - кучевые, Cb - кучево-дождевые. Подробнее классификацию облаков см. в Атласе облаков (PDF).
T - Температура воздуха - температура, измеренная на высоте 2 м над землей.
Td - Температура точки росы - температура, при понижении до которой содержащийся в воздухе водяной пар достигнет насыщения.
f - Относительная влажность воздуха - влажноcть воздуха, измеренная на высоте 2 м над землей.
Te - Эффективная температура - температура, которую ощущает одетый по сезону человек в тени. Характеристика душности погоды. При расчете учитывается влияние влажности воздуха и скорости ветра на теплоощущения человека.
Tes - Эффективная температура на солнце - температура, которую ощущает человек, с поправкой на солнечный нагрев. Характеристика знойности погоды. Зависит от высоты солнца над горизонтом, облачности и скорости ветра. Ночью, в пасмурную погоду, а также при ветре 12 м/с и более поправка равна нулю.
P - Атмосферное давление - приведенное к уровню моря атмосферное давление.
Po - Атмосферное давление - измеренное на уровне метеостанции атмосферное давление.
Tmin - Минимальная температура - минимум температуры воздуха на высоте 2 м над землей.
Tmax - Максимальная температура - максимум температуры воздуха на высоте 2 м над землей.
R - Количество осадков - Количество выпавших осадков за период времени, мм. При наведении курсора мыши на число - период времени, за который выпало указанное количество осадков.
R24 - Количество осадков - Количество выпавших осадков за 24 часа, мм.
S - Снежный покров - Высота снежного покрова, см. При наведении курсора мыши на число - состояние снежного покрова и степень покрытия местности в баллах.